Time,TemperatureF,DewpointF,PressureIn,WindDirection,WindDirectionDegrees,WindSpeedMPH,WindSpeedGustMPH,Humidity,HourlyPrecipIn,Conditions,Clouds,dailyrainin,SoftwareType,DateUTC
2013-05-26 00:02:00,45.0,39.0,30.10,WNW,290,3.0,-999.0,81,-99.99,,,-99.99,,2013-05-26 04:02:00,
2013-05-26 00:12:00,43.0,39.0,30.09,NW,310,1.0,-999.0,86,-99.99,,,-99.99,,2013-05-26 04:12:00,
2013-05-26 00:23:00,41.0,39.0,30.09,WNW,300,2.0,-999.0,93,-99.99,,,-99.99,,2013-05-26 04:23:00,
2013-05-26 00:33:00,41.0,39.0,30.09,NW,320,3.0,-999.0,93,-99.99,,,-99.99,,2013-05-26 04:33:00,
2013-05-26 00:42:00,41.0,39.0,30.09,NNW,340,3.0,-999.0,93,-99.99,,,-99.99,,2013-05-26 04:42:00,
2013-05-26 00:52:00,43.0,39.0,30.08,West,280,2.0,-999.0,86,-99.99,,,-99.99,,2013-05-26 04:52:00,
2013-05-26 01:02:00,43.0,39.0,30.08,West,280,2.0,-999.0,86,-99.99,,,-99.99,,2013-05-26 05:02:00,
2013-05-26 01:12:00,39.0,37.0,30.09,SW,230,5.0,-999.0,93,-99.99,,,-99.99,,2013-05-26 05:12:00,
2013-05-26 01:22:00,39.0,37.0,30.09,WSW,250,3.0,-999.0,93,-99.99,,,-99.99,,2013-05-26 05:22:00,
2013-05-26 01:32:00,39.0,39.0,30.09,WNW,300,2.0,-999.0,100,-99.99,,,-99.99,,2013-05-26 05:32:00,
2013-05-26 01:42:00,41.0,37.0,30.08,NW,310,2.0,-999.0,86,-99.99,,,-99.99,,2013-05-26 05:42:00,
2013-05-26 01:52:00,41.0,37.0,30.08,WNW,300,2.0,-999.0,86,-99.99,,,-99.99,,2013-05-26 05:52:00,
2013-05-26 02:01:00,41.0,37.0,30.08,WNW,300,2.0,-999.0,86,-99.99,,,-99.99,,2013-05-26 06:01:00,
2013-05-26 02:12:00,43.0,37.0,30.08,West,280,3.0,-999.0,81,-99.99,,,-99.99,,2013-05-26 06:12:00,
2013-05-26 02:22:00,45.0,36.0,30.08,WNW,300,5.0,-999.0,70,-99.99,,,-99.99,,2013-05-26 06:22:00,
2013-05-26 02:32:00,45.0,36.0,30.08,WNW,300,2.0,-999.0,70,-99.99,,,-99.99,,2013-05-26 06:32:00,
2013-05-26 02:42:00,46.0,36.0,30.08,WNW,290,3.0,-999.0,65,-99.99,,,-99.99,,2013-05-26 06:42:00,
2013-05-26 02:52:00,45.0,36.0,30.08,West,270,5.0,-999.0,70,-99.99,,,-99.99,,2013-05-26 06:52:00,
2013-05-26 03:01:00,45.0,36.0,30.08,West,270,5.0,-999.0,70,-99.99,,,-99.99,,2013-05-26 07:01:00,
2013-05-26 03:11:00,45.0,36.0,30.08,WNW,290,6.0,-999.0,70,-99.99,,,-99.99,,2013-05-26 07:11:00,
2013-05-26 03:22:00,45.0,36.0,30.09,WNW,290,5.0,-999.0,70,-99.99,,,-99.99,,2013-05-26 07:22:00,
2013-05-26 03:32:00,46.0,37.0,30.09,WNW,290,5.0,-999.0,70,-99.99,,,-99.99,,2013-05-26 07:32:00,
2013-05-26 03:42:00,46.0,37.0,30.09,WNW,300,5.0,-999.0,70,-99.99,,,-99.99,,2013-05-26 07:42:00,
2013-05-26 03:52:00,46.0,37.0,30.09,West,280,5.0,-999.0,70,-99.99,,,-99.99,,2013-05-26 07:52:00,
2013-05-26 04:01:00,46.0,37.0,30.09,West,280,5.0,-999.0,70,-99.99,,,-99.99,,2013-05-26 08:01:00,
2013-05-26 04:12:00,48.0,37.0,30.09,WNW,290,3.0,-999.0,66,-99.99,,,-99.99,,2013-05-26 08:12:00,
2013-05-26 04:21:00,46.0,37.0,30.10,WNW,300,3.0,-999.0,70,-99.99,,,-99.99,,2013-05-26 08:21:00,
2013-05-26 04:32:00,46.0,37.0,30.10,WNW,300,6.0,-999.0,70,-99.99,,,-99.99,,2013-05-26 08:32:00,
2013-05-26 04:42:00,46.0,37.0,30.10,WNW,300,3.0,-999.0,70,-99.99,,,-99.99,,2013-05-26 08:42:00,
2013-05-26 04:53:00,46.0,37.0,30.10,WNW,290,5.0,-999.0,70,-99.99,,,-99.99,,2013-05-26 08:53:00,
2013-05-26 05:01:00,46.0,37.0,30.10,WNW,290,5.0,-999.0,70,-99.99,,,-99.99,,2013-05-26 09:01:00,
2013-05-26 05:11:00,46.0,37.0,30.10,West,280,3.0,-999.0,70,-99.99,,,-99.99,,2013-05-26 09:11:00,
2013-05-26 05:21:00,46.0,37.0,30.11,WNW,290,5.0,-999.0,70,-99.99,,,-99.99,,2013-05-26 09:21:00,
2013-05-26 05:33:00,46.0,37.0,30.11,WNW,290,2.0,-999.0,70,-99.99,,,-99.99,,2013-05-26 09:33:00,
2013-05-26 05:42:00,45.0,37.0,30.11,WNW,290,2.0,-999.0,75,-99.99,,,-99.99,,2013-05-26 09:42:00,
2013-05-26 05:52:00,45.0,37.0,30.11,West,280,3.0,-999.0,75,-99.99,,,-99.99,,2013-05-26 09:52:00,
2013-05-26 06:03:00,45.0,37.0,30.11,West,280,3.0,-999.0,75,-99.99,,,-99.99,,2013-05-26 10:03:00,
2013-05-26 06:12:00,46.0,37.0,30.12,WNW,290,5.0,-999.0,70,-99.99,,,-99.99,,2013-05-26 10:12:00,
2013-05-26 06:23:00,46.0,37.0,30.12,West,280,5.0,-999.0,70,-99.99,,,-99.99,,2013-05-26 10:23:00,
2013-05-26 06:33:00,46.0,39.0,30.12,WNW,300,3.0,-999.0,75,-99.99,,,-99.99,,2013-05-26 10:33:00,
2013-05-26 06:42:00,48.0,39.0,30.13,NW,320,3.0,-999.0,70,-99.99,,,-99.99,,2013-05-26 10:42:00,
2013-05-26 06:52:00,48.0,39.0,30.13,NW,310,8.0,-999.0,70,-99.99,,,-99.99,,2013-05-26 10:52:00,
2013-05-26 07:03:00,48.0,39.0,30.13,NW,310,8.0,-999.0,70,-99.99,,,-99.99,,2013-05-26 11:03:00,
2013-05-26 07:11:00,50.0,39.0,30.13,NW,310,6.0,-999.0,66,-99.99,,,-99.99,,2013-05-26 11:11:00,
2013-05-26 07:22:00,52.0,39.0,30.13,NW,320,10.0,-999.0,61,-99.99,,,-99.99,,2013-05-26 11:22:00,
2013-05-26 07:32:00,54.0,39.0,30.13,NW,310,10.0,-999.0,58,-99.99,,,-99.99,,2013-05-26 11:32:00,
2013-05-26 07:42:00,54.0,39.0,30.13,NW,310,10.0,-999.0,58,-99.99,,,-99.99,,2013-05-26 11:42:00,
2013-05-26 07:52:00,54.0,39.0,30.13,NW,310,14.0,16.0,58,-99.99,,,-99.99,,2013-05-26 11:52:00,
2013-05-26 08:02:00,54.0,39.0,30.13,NW,310,14.0,16.0,58,-99.99,,,-99.99,,2013-05-26 12:02:00,
2013-05-26 08:12:00,55.0,39.0,30.14,WNW,300,7.0,17.0,54,-99.99,,,-99.99,,2013-05-26 12:12:00,
2013-05-26 08:21:00,55.0,39.0,30.14,WNW,290,8.0,16.0,54,-99.99,,,-99.99,,2013-05-26 12:21:00,
2013-05-26 08:32:00,57.0,39.0,30.14,NW,310,12.0,-999.0,50,-99.99,,,-99.99,,2013-05-26 12:32:00,
2013-05-26 08:42:00,57.0,37.0,30.14,WNW,300,12.0,18.0,47,-99.99,,,-99.99,,2013-05-26 12:42:00,
2013-05-26 08:52:00,57.0,37.0,30.14,WNW,290,12.0,16.0,47,-99.99,,,-99.99,,2013-05-26 12:52:00,
2013-05-26 09:02:00,57.0,37.0,30.14,WNW,290,12.0,16.0,47,-99.99,,,-99.99,,2013-05-26 13:02:00,
2013-05-26 09:11:00,59.0,37.0,30.14,NNW,330,12.0,17.0,44,-99.99,,,-99.99,,2013-05-26 13:11:00,
2013-05-26 09:21:00,59.0,37.0,30.14,NW,320,12.0,-999.0,44,-99.99,,,-99.99,,2013-05-26 13:21:00,
2013-05-26 09:32:00,59.0,37.0,30.14,NW,320,12.0,18.0,44,-99.99,,,-99.99,,2013-05-26 13:32:00,
2013-05-26 09:42:00,59.0,37.0,30.14,NW,320,15.0,23.0,44,-99.99,,,-99.99,,2013-05-26 13:42:00,
2013-05-26 09:52:00,59.0,36.0,30.14,WNW,300,10.0,24.0,41,-99.99,,,-99.99,,2013-05-26 13:52:00,
2013-05-26 10:02:00,59.0,36.0,30.14,WNW,300,10.0,24.0,41,-99.99,,,-99.99,,2013-05-26 14:02:00,
2013-05-26 10:11:00,63.0,36.0,30.13,WNW,300,16.0,21.0,36,-99.99,,,-99.99,,2013-05-26 14:11:00,
2013-05-26 10:21:00,63.0,36.0,30.13,WNW,300,14.0,21.0,36,-99.99,,,-99.99,,2013-05-26 14:21:00,
2013-05-26 10:32:00,63.0,36.0,30.13,WNW,300,9.0,18.0,36,-99.99,,,-99.99,,2013-05-26 14:32:00,
2013-05-26 10:42:00,63.0,36.0,30.13,WNW,300,21.0,21.0,36,-99.99,,,-99.99,,2013-05-26 14:42:00,
2013-05-26 10:52:00,63.0,36.0,30.13,NNW,330,9.0,22.0,36,-99.99,,,-99.99,,2013-05-26 14:52:00,
2013-05-26 11:01:00,63.0,36.0,30.13,NNW,330,9.0,22.0,36,-99.99,,,-99.99,,2013-05-26 15:01:00,
2013-05-26 11:12:00,64.0,36.0,30.13,NW,320,13.0,23.0,34,-99.99,,,-99.99,,2013-05-26 15:12:00,
2013-05-26 11:22:00,64.0,36.0,30.13,NNW,340,16.0,27.0,34,-99.99,,,-99.99,,2013-05-26 15:22:00,
2013-05-26 11:33:00,64.0,37.0,30.12,West,270,27.0,27.0,36,-99.99,,,-99.99,,2013-05-26 15:33:00,
2013-05-26 11:43:00,64.0,36.0,30.12,NW,320,12.0,27.0,34,-99.99,,,-99.99,,2013-05-26 15:43:00,
2013-05-26 11:53:00,64.0,36.0,30.13,NW,320,14.0,23.0,34,-99.99,,,-99.99,,2013-05-26 15:53:00,
2013-05-26 12:03:00,64.0,36.0,30.13,NW,320,14.0,23.0,34,-99.99,,,-99.99,,2013-05-26 16:03:00,
2013-05-26 12:12:00,64.0,37.0,30.12,NW,320,20.0,23.0,36,-99.99,,,-99.99,,2013-05-26 16:12:00,
2013-05-26 12:23:00,64.0,37.0,30.11,NW,320,15.0,22.0,36,-99.99,,,-99.99,,2013-05-26 16:23:00,
2013-05-26 12:33:00,64.0,36.0,30.11,NW,320,16.0,25.0,34,-99.99,,,-99.99,,2013-05-26 16:33:00,
2013-05-26 12:42:00,66.0,36.0,30.11,WNW,300,15.0,23.0,32,-99.99,,,-99.99,,2013-05-26 16:42:00,
2013-05-26 12:52:00,66.0,36.0,30.11,NW,310,17.0,22.0,32,-99.99,,,-99.99,,2013-05-26 16:52:00,
2013-05-26 13:02:00,66.0,36.0,30.11,NW,310,17.0,22.0,32,-99.99,,,-99.99,,2013-05-26 17:02:00,
2013-05-26 13:11:00,66.0,36.0,30.11,WNW,300,15.0,25.0,32,-99.99,,,-99.99,,2013-05-26 17:11:00,
2013-05-26 13:22:00,66.0,36.0,30.11,NW,320,13.0,20.0,32,-99.99,,,-99.99,,2013-05-26 17:22:00,
2013-05-26 13:32:00,66.0,36.0,30.11,West,280,14.0,23.0,32,-99.99,,,-99.99,,2013-05-26 17:32:00,
2013-05-26 13:42:00,66.0,37.0,30.10,NW,310,12.0,21.0,34,-99.99,,,-99.99,,2013-05-26 17:42:00,
2013-05-26 13:52:00,68.0,36.0,30.10,WNW,300,12.0,27.0,30,-99.99,,,-99.99,,2013-05-26 17:52:00,
2013-05-26 14:01:00,68.0,36.0,30.10,WNW,300,12.0,27.0,30,-99.99,,,-99.99,,2013-05-26 18:01:00,
2013-05-26 14:12:00,70.0,36.0,30.10,NW,320,15.0,23.0,28,-99.99,,,-99.99,,2013-05-26 18:12:00,
2013-05-26 14:21:00,68.0,37.0,30.10,NW,310,18.0,22.0,32,-99.99,,,-99.99,,2013-05-26 18:21:00,
2013-05-26 14:32:00,68.0,36.0,30.10,WNW,300,13.0,28.0,30,-99.99,,,-99.99,,2013-05-26 18:32:00,
2013-05-26 14:42:00,68.0,36.0,30.09,West,270,18.0,28.0,30,-99.99,,,-99.99,,2013-05-26 18:42:00,
2013-05-26 14:52:00,68.0,37.0,30.09,WNW,290,15.0,27.0,32,-99.99,,,-99.99,,2013-05-26 18:52:00,
2013-05-26 15:01:00,68.0,37.0,30.09,WNW,290,15.0,27.0,32,-99.99,,,-99.99,,2013-05-26 19:01:00,
2013-05-26 15:11:00,70.0,37.0,30.09,NW,320,16.0,20.0,30,-99.99,,,-99.99,,2013-05-26 19:11:00,
2013-05-26 15:22:00,68.0,37.0,30.09,NNW,340,10.0,20.0,32,-99.99,,,-99.99,,2013-05-26 19:22:00,
2013-05-26 15:32:00,70.0,36.0,30.09,NW,320,17.0,24.0,28,-99.99,,,-99.99,,2013-05-26 19:32:00,
2013-05-26 15:42:00,68.0,36.0,30.09,NW,320,14.0,20.0,30,-99.99,,,-99.99,,2013-05-26 19:42:00,
2013-05-26 15:52:00,70.0,36.0,30.09,WNW,300,17.0,25.0,28,-99.99,,,-99.99,,2013-05-26 19:52:00,
2013-05-26 16:02:00,70.0,36.0,30.09,WNW,300,17.0,25.0,28,-99.99,,,-99.99,,2013-05-26 20:02:00,
2013-05-26 16:11:00,70.0,36.0,30.09,NNW,330,16.0,21.0,28,-99.99,,,-99.99,,2013-05-26 20:11:00,
2013-05-26 16:22:00,68.0,37.0,30.09,WNW,300,17.0,21.0,32,-99.99,,,-99.99,,2013-05-26 20:22:00,
2013-05-26 16:32:00,70.0,36.0,30.10,WNW,300,12.0,25.0,28,-99.99,,,-99.99,,2013-05-26 20:32:00,
2013-05-26 16:42:00,70.0,36.0,30.10,NW,320,12.0,25.0,28,-99.99,,,-99.99,,2013-05-26 20:42:00,
2013-05-26 16:52:00,72.0,37.0,30.09,NNW,330,10.0,-999.0,28,-99.99,,,-99.99,,2013-05-26 20:52:00,
2013-05-26 17:02:00,72.0,37.0,30.09,NNW,330,10.0,-999.0,28,-99.99,,,-99.99,,2013-05-26 21:02:00,
2013-05-26 17:11:00,70.0,37.0,30.10,WNW,290,10.0,18.0,30,-99.99,,,-99.99,,2013-05-26 21:11:00,
2013-05-26 17:22:00,70.0,36.0,30.10,NNW,340,14.0,21.0,28,-99.99,,,-99.99,,2013-05-26 21:22:00,
2013-05-26 17:33:00,68.0,37.0,30.09,North,0,15.0,21.0,32,-99.99,,,-99.99,,2013-05-26 21:33:00,
2013-05-26 17:43:00,70.0,37.0,30.09,NW,320,17.0,18.0,30,-99.99,,,-99.99,,2013-05-26 21:43:00,
2013-05-26 17:53:00,68.0,36.0,30.10,NW,320,9.0,-999.0,30,-99.99,,,-99.99,,2013-05-26 21:53:00,
2013-05-26 18:03:00,68.0,36.0,30.10,NW,320,9.0,-999.0,30,-99.99,,,-99.99,,2013-05-26 22:03:00,
2013-05-26 18:12:00,68.0,37.0,30.10,NNW,330,9.0,20.0,32,-99.99,,,-99.99,,2013-05-26 22:12:00,
2013-05-26 18:23:00,68.0,37.0,30.11,WNW,290,10.0,16.0,32,-99.99,,,-99.99,,2013-05-26 22:23:00,
2013-05-26 18:33:00,68.0,36.0,30.11,NW,320,9.0,16.0,30,-99.99,,,-99.99,,2013-05-26 22:33:00,
2013-05-26 18:42:00,68.0,37.0,30.11,NW,320,12.0,16.0,32,-99.99,,,-99.99,,2013-05-26 22:42:00,
2013-05-26 18:53:00,68.0,36.0,30.12,NNW,330,12.0,-999.0,30,-99.99,,,-99.99,,2013-05-26 22:53:00,
2013-05-26 19:02:00,68.0,36.0,30.12,NNW,330,12.0,-999.0,30,-99.99,,,-99.99,,2013-05-26 23:02:00,
2013-05-26 19:12:00,68.0,37.0,30.12,NW,310,7.0,-999.0,32,-99.99,,,-99.99,,2013-05-26 23:12:00,
2013-05-26 19:22:00,66.0,37.0,30.13,WNW,290,3.0,-999.0,34,-99.99,,,-99.99,,2013-05-26 23:22:00,
2013-05-26 19:32:00,66.0,37.0,30.13,WNW,290,8.0,-999.0,34,-99.99,,,-99.99,,2013-05-26 23:32:00,
2013-05-26 19:43:00,66.0,37.0,30.13,West,280,5.0,-999.0,34,-99.99,,,-99.99,,2013-05-26 23:43:00,
2013-05-26 19:52:00,64.0,39.0,30.13,WNW,290,2.0,-999.0,39,-99.99,,,-99.99,,2013-05-26 23:52:00,
2013-05-26 20:02:00,64.0,39.0,30.13,WNW,290,2.0,-999.0,39,-99.99,,,-99.99,,2013-05-27 00:02:00,
2013-05-26 20:11:00,63.0,41.0,30.14,West,280,3.0,-999.0,45,-99.99,,,-99.99,,2013-05-27 00:11:00,
2013-05-26 20:22:00,61.0,41.0,30.14,West,280,2.0,-999.0,48,-99.99,,,-99.99,,2013-05-27 00:22:00,
2013-05-26 20:32:00,59.0,43.0,30.14,North,0,0.0,-999.0,54,-99.99,,,-99.99,,2013-05-27 00:32:00,
2013-05-26 20:42:00,57.0,45.0,30.14,North,0,0.0,-999.0,62,-99.99,,,-99.99,,2013-05-27 00:42:00,
2013-05-26 20:52:00,55.0,45.0,30.15,North,0,0.0,-999.0,66,-99.99,,,-99.99,,2013-05-27 00:52:00,
2013-05-26 21:01:00,55.0,45.0,30.15,North,0,0.0,-999.0,66,-99.99,,,-99.99,,2013-05-27 01:01:00,
2013-05-26 21:11:00,54.0,45.0,30.16,North,0,0.0,-999.0,71,-99.99,,,-99.99,,2013-05-27 01:11:00,
2013-05-26 21:22:00,52.0,45.0,30.16,North,0,0.0,-999.0,76,-99.99,,,-99.99,,2013-05-27 01:22:00,
2013-05-26 21:32:00,52.0,45.0,30.16,North,0,0.0,-999.0,76,-99.99,,,-99.99,,2013-05-27 01:32:00,
2013-05-26 21:42:00,52.0,45.0,30.16,North,0,0.0,-999.0,76,-99.99,,,-99.99,,2013-05-27 01:42:00,
2013-05-26 21:52:00,50.0,45.0,30.17,North,0,0.0,-999.0,81,-99.99,,,-99.99,,2013-05-27 01:52:00,
2013-05-26 22:02:00,50.0,45.0,30.17,North,0,0.0,-999.0,81,-99.99,,,-99.99,,2013-05-27 02:02:00,
2013-05-26 22:11:00,48.0,45.0,30.18,North,0,0.0,-999.0,87,-99.99,,,-99.99,,2013-05-27 02:11:00,
2013-05-26 22:22:00,48.0,45.0,30.18,North,0,0.0,-999.0,87,-99.99,,,-99.99,,2013-05-27 02:22:00,
2013-05-26 22:32:00,48.0,43.0,30.19,North,0,0.0,-999.0,81,-99.99,,,-99.99,,2013-05-27 02:32:00,
2013-05-26 22:42:00,48.0,43.0,30.19,North,0,0.0,-999.0,81,-99.99,,,-99.99,,2013-05-27 02:42:00,
2013-05-26 22:52:00,48.0,45.0,30.19,North,0,0.0,-999.0,87,-99.99,,,-99.99,,2013-05-27 02:52:00,
2013-05-26 23:02:00,48.0,45.0,30.19,North,0,0.0,-999.0,87,-99.99,,,-99.99,,2013-05-27 03:02:00,
2013-05-26 23:11:00,48.0,45.0,30.19,North,0,0.0,-999.0,87,-99.99,,,-99.99,,2013-05-27 03:11:00,
2013-05-26 23:21:00,48.0,45.0,30.19,North,0,0.0,-999.0,87,-99.99,,,-99.99,,2013-05-27 03:21:00,
2013-05-26 23:33:00,46.0,45.0,30.20,North,0,0.0,-999.0,93,-99.99,,,-99.99,,2013-05-27 03:33:00,
2013-05-26 23:43:00,46.0,45.0,30.20,NE,50,1.0,-999.0,93,-99.99,,,-99.99,,2013-05-27 03:43:00,
2013-05-26 23:53:00,48.0,46.0,30.21,North,0,0.0,-999.0,93,-99.99,,,-99.99,,2013-05-27 03:53:00,